CW4645 Weather Reports


Display with metric or nautical units.
time (UTC)temp
F
wind
direction
speed
MPH
gust
MPH
rain 1hr
in
rain 24hr
in
rain mn
in
humidity
%
barometer
mb
20260505112942 54 54 0.0 0.0 0.00 0.00 0.00 91 1015.5
20260505111425 53 54 0.0 0.0 0.00 0.00 0.00 91 1015.5
20260505101442 51 54 0.0 0.0 0.00 0.00 0.00 90 1015.0
20260505095921 52 54 0.0 0.0 0.00 0.00 0.00 90 1014.8
20260505094419 52 54 0.0 0.0 0.00 0.00 0.00 90 1014.7
20260505092923 53 54 0.0 0.0 0.00 0.00 0.00 89 1014.7
20260505091426 53 54 0.0 0.0 0.00 0.00 0.00 89 1014.8
20260505085939 54 54 0.0 0.0 0.00 0.00 0.00 88 1014.8
20260505084420 54 54 0.0 0.0 0.00 0.00 0.00 87 1014.7
20260505082933 55 54 0.0 0.0 0.00 0.00 0.00 86 1014.6
20260505081426 55 54 0.0 0.0 0.00 0.00 0.00 84 1014.6
20260505075934 56 54 0.0 0.0 0.00 0.00 0.00 83 1014.5
20260505074419 57 54 0.0 0.0 0.00 0.00 0.00 80 1014.5
20260505072916 58 54 0.0 0.0 0.00 0.00 0.00 78 1014.4
20260505071439 59 54 0.0 0.0 0.00 0.00 0.00 77 1014.4
20260505065927 59 54 0.0 0.0 0.00 0.00 0.00 76 1014.4
20260505064424 59 54 0.0 0.0 0.00 0.00 0.00 76 1014.4
20260505062936 59 54 0.0 0.0 0.00 0.00 0.00 75 1014.5
20260505061449 60 54 0.0 0.0 0.00 0.00 0.00 74 1014.6
20260505055940 60 54 0.0 0.0 0.00 0.00 0.00 73 1014.8
20260505054446 61 54 0.0 0.0 0.00 0.00 0.00 72 1014.9
20260505052928 61 54 0.0 0.0 0.00 0.00 0.00 71 1014.9
20260505051447 61 54 0.0 0.0 0.00 0.00 0.00 71 1015.0
20260505041418 63 54 0.0 0.0 0.00 0.00 0.00 67 1015.1
20260505035933 63 54 0.0 0.0 0.00 0.00 0.00 67 1015.1
20260505034418 64 54 0.0 2.0 0.00 0.00 0.00 66 1015.1
20260505032915 64 54 1.0 2.0 0.00 0.00 0.00 66 1015.2
20260505031441 64 15 0.0 2.0 0.00 0.00 0.00 65 1015.1
20260505025928 65 15 0.0 1.0 0.00 0.00 0.00 64 1015.2
20260505024421 65 6 0.0 0.0 0.00 0.00 0.00 64 1015.2
20260505022953 65 7 0.0 0.0 0.00 0.00 0.00 64 1015.1
20260505021443 65 19 0.0 0.0 0.00 0.00 0.00 62 1014.9
20260505015953 65 19 0.0 0.0 0.00 0.00 0.00 61 1014.7
20260505014444 62 31 0.0 0.0 0.00 0.00 0.00 64 1014.6
20260505012931 63 34 0.0 0.0 0.00 0.00 0.00 64 1014.1
20260505011418 64 34 0.0 0.0 0.00 0.00 0.00 62 1014.0
20260505005947 66 34 0.0 0.0 0.00 0.00 0.00 58 1013.9
20260505004423 67 34 0.0 0.0 0.00 0.00 0.00 52 1013.7
20260505003000 69 34 0.0 0.0 0.00 0.00 0.00 48 1013.5
20260505001505 70 34 0.0 0.0 0.00 0.00 0.00 44 1013.4
20260504235934 71 34 0.0 0.0 0.00 0.00 0.00 43 1013.2
20260504234426 72 34 0.0 0.0 0.00 0.00 0.00 43 1013.0
20260504232936 73 33 0.0 0.0 0.00 0.00 0.00 43 1013.0
20260504231420 74 33 0.0 0.0 0.00 0.00 0.00 41 1013.0
20260504225938 75 33 0.0 0.0 0.00 0.00 0.00 40 1013.0
20260504224442 76 33 0.0 2.0 0.00 0.00 0.00 37 1012.9
20260504222939 77 45 0.0 2.0 0.00 0.00 0.00 37 1012.9
20260504221417 77 85 0.0 7.0 0.00 0.00 0.00 35 1012.9
20260504215948 78 359 0.0 4.0 0.00 0.00 0.00 35 1012.8
20260504214426 79 29 0.0 5.0 0.00 0.00 0.00 33 1012.7
20260504212929 80 86 0.0 3.0 0.00 0.00 0.00 31 1012.9
20260504211446 81 10 0.0 4.0 0.00 0.00 0.00 31 1012.9
20260504210003 80 129 0.0 2.0 0.00 0.00 0.00 33 1012.9
20260504204431 80 41 0.0 4.0 0.00 0.00 0.00 32 1013.0
20260504202922 82 44 0.0 1.0 0.00 0.00 0.00 35 1013.1
20260504201417 80 252 0.0 1.0 0.00 0.00 0.00 35 1013.4
20260504195927 81 51 0.0 1.0 0.00 0.00 0.00 30 1013.5
20260504194427 82 20 0.0 3.0 0.00 0.00 0.00 31 1013.6
20260504192921 81 97 0.0 2.0 0.00 0.00 0.00 35 1014.0
20260504191440 79 22 0.0 4.0 0.00 0.00 0.00 31 1014.1
20260504185930 79 28 0.0 3.0 0.00 0.00 0.00 34 1014.5
20260504184426 79 52 0.0 3.0 0.00 0.00 0.00 34 1014.7
20260504182931 80 195 0.0 4.0 0.00 0.00 0.00 41 1015.0
20260504181435 78 226 2.0 8.0 0.00 0.00 0.00 33 1015.0
20260504175923 77 3 0.0 1.0 0.00 0.00 0.00 33 1015.1
20260504174433 76 329 1.0 6.0 0.00 0.00 0.00 37 1015.2
20260504172929 76 133 0.0 3.0 0.00 0.00 0.00 36 1015.3
20260504171423 76 313 0.0 7.0 0.00 0.00 0.00 35 1015.6